TimeEDT,TemperatureF,Dew PointF,Humidity,Sea Level PressureIn,VisibilityMPH,Wind Direction,Wind SpeedMPH,Gust SpeedMPH,PrecipitationIn,Events,Conditions,WindDirDegrees,DateUTC
12:53 AM,44.1,41.0,89,29.94,10.0,Calm,Calm,-,N/A,,Overcast,0,2012-10-01 04:53:00
1:53 AM,44.1,41.0,89,29.94,10.0,Calm,Calm,-,N/A,,Clear,0,2012-10-01 05:53:00
2:53 AM,41.0,39.0,93,29.93,7.0,Calm,Calm,-,N/A,,Clear,0,2012-10-01 06:53:00
3:53 AM,39.9,37.9,93,29.92,7.0,Calm,Calm,-,N/A,,Clear,0,2012-10-01 07:53:00
4:53 AM,39.9,37.9,93,29.94,10.0,Calm,Calm,-,0.01,,Clear,0,2012-10-01 08:53:00
5:53 AM,39.9,37.9,93,29.94,10.0,Calm,Calm,-,N/A,,Clear,0,2012-10-01 09:53:00
6:53 AM,39.0,37.9,96,29.95,6.0,Calm,Calm,-,N/A,,Clear,0,2012-10-01 10:53:00
7:53 AM,39.9,39.0,97,29.97,8.0,Calm,Calm,-,N/A,,Clear,0,2012-10-01 11:53:00
8:53 AM,46.0,44.1,93,29.98,10.0,Calm,Calm,-,N/A,,Clear,0,2012-10-01 12:53:00
9:53 AM,53.1,50.0,89,29.98,10.0,Calm,Calm,-,N/A,,Clear,0,2012-10-01 13:53:00
11:53 AM,62.1,45.0,53,29.96,10.0,Variable,3.5,-,N/A,,Scattered Clouds,0,2012-10-01 15:53:00
12:53 PM,63.0,46.0,54,29.95,10.0,WNW,5.8,-,N/A,,Clear,300,2012-10-01 16:53:00
2:53 PM,64.9,46.0,50,29.92,10.0,Calm,Calm,-,N/A,,Mostly Cloudy,0,2012-10-01 18:53:00
3:53 PM,64.0,46.9,54,29.91,10.0,NE,4.6,-,N/A,,Partly Cloudy,40,2012-10-01 19:53:00
5:53 PM,61.0,48.0,62,29.90,10.0,ENE,5.8,-,N/A,,Clear,70,2012-10-01 21:53:00
6:53 PM,57.0,46.9,69,29.91,10.0,NE,3.5,-,N/A,,Clear,50,2012-10-01 22:53:00
7:53 PM,53.1,46.9,80,29.91,10.0,NE,3.5,-,N/A,,Clear,50,2012-10-01 23:53:00
8:53 PM,54.0,46.0,75,29.91,10.0,Calm,Calm,-,N/A,,Clear,0,2012-10-02 00:53:00
9:53 PM,52.0,46.0,80,29.89,10.0,East,4.6,-,N/A,,Clear,90,2012-10-02 01:53:00
10:53 PM,52.0,46.0,80,29.87,10.0,East,3.5,-,N/A,,Partly Cloudy,100,2012-10-02 02:53:00
11:53 PM,54.0,46.9,77,29.85,10.0,Calm,Calm,-,N/A,,Mostly Cloudy,0,2012-10-02 03:53:00